Theta_e
337 346 363 364 363 363 362 362 361 360 360 360 359 359 358 358 359 358 357 356 355 353 350 347 343 340 338 336 335 334 334 334 337 342 349 351 352 352 353 353 352 350 354
339 349 362 363 363 363 362 362 361 360 360 359 359 359 358 357 357 356 355 353 351 348 346 343 340 338 335 333 332 332 331 330 329 329 331 341 349 350 350 351 352 350 352
338 351 359 362 363 363 362 361 360 359 359 360 359 358 358 357 355 354 353 351 348 345 343 341 339 337 336 335 335 334 334 334 334 334 331 321 329 348 349 350 353 351 350
340 349 353 361 362 362 361 360 359 359 359 359 359 358 357 357 355 352 351 349 346 343 342 340 338 338 337 336 336 335 336 337 337 338 332 330 326 347 348 350 352 350 349
341 346 351 361 362 362 361 360 359 359 359 359 359 358 357 356 355 353 352 349 345 344 342 340 339 339 339 338 338 338 338 339 341 341 336 333 330 333 349 350 351 351 350
340 343 355 359 360 361 361 360 359 359 359 359 359 359 357 355 355 353 351 350 347 344 341 341 341 341 340 340 341 340 341 342 344 338 337 338 329 336 349 349 350 350 350
339 340 351 357 359 361 361 360 359 359 358 359 359 359 358 357 355 353 351 348 347 346 343 342 344 345 344 343 342 343 343 344 341 340 338 334 332 348 349 350 350 351 350
336 338 347 356 358 358 359 359 359 358 358 359 359 359 358 357 355 353 351 349 348 348 347 346 346 346 346 346 345 345 345 345 343 338 336 333 335 344 348 351 349 349 349
334 338 343 347 353 358 358 357 358 357 357 358 357 357 357 357 355 354 352 350 349 348 348 347 347 347 346 347 346 347 345 346 339 336 336 332 340 342 345 347 345 346 347
331 336 338 342 346 348 351 357 357 357 357 357 357 357 356 356 355 354 351 350 349 348 348 348 348 348 347 347 347 347 345 346 337 335 334 333 341 343 346 347 344 346 348
334 334 338 341 340 341 342 352 356 358 357 357 357 357 354 351 350 349 349 348 349 348 348 349 349 349 347 347 347 345 345 337 335 335 334 339 341 345 345 347 346 347 348
330 334 338 340 341 340 343 342 345 348 351 351 351 351 350 344 342 345 347 348 348 348 347 348 349 349 346 338 339 344 338 337 337 336 334 340 342 346 346 348 347 346 347
330 333 336 339 340 339 337 340 340 340 341 341 341 341 343 339 339 341 336 339 337 345 337 342 341 341 337 336 336 335 336 336 335 336 337 342 344 347 348 347 346 347 346
337 335 334 336 337 337 335 339 339 338 338 338 338 337 337 334 332 333 334 333 333 333 332 332 334 336 336 336 336 335 334 334 334 335 335 343 345 348 348 349 346 346 345
337 338 336 334 333 335 329 334 335 334 336 336 336 336 335 333 332 331 330 329 330 330 330 330 331 334 334 336 336 336 335 332 333 334 332 342 346 348 349 350 347 345 344
338 341 340 337 334 331 330 329 331 332 332 332 334 334 335 334 332 330 327 328 327 330 330 331 330 331 332 334 334 335 334 333 333 334 334 334 345 347 346 347 346 345 344
335 341 342 340 338 333 331 331 332 333 333 333 332 332 335 334 330 329 328 326 328 329 328 329 328 327 328 330 331 332 332 333 334 335 335 337 340 346 346 344 345 344 344
331 335 341 344 340 336 334 332 334 335 336 335 335 335 336 335 332 330 329 327 326 328 328 329 326 324 326 326 328 330 330 332 334 338 337 336 336 336 342 339 340 343 345
330 329 333 341 340 339 338 337 337 338 338 339 339 338 337 336 334 333 331 330 327 327 327 328 326 326 324 325 327 327 328 330 333 336 335 335 333 337 335 339 342 341 343
329 330 329 329 329 333 337 339 339 340 340 340 340 340 339 338 337 334 334 330 329 328 327 325 326 326 324 326 328 329 328 329 330 331 332 333 332 333 332 331 331 335 342
317 323 326 327 326 327 334 336 337 338 341 343 343 342 340 340 339 335 334 332 330 328 329 328 326 325 323 325 323 322 324 327 328 328 328 329 330 331 330 331 330 330 332
314 319 322 325 328 328 333 336 336 338 341 342 342 339 340 342 341 338 335 334 331 330 327 328 327 323 325 326 325 321 316 319 323 326 326 326 327 329 330 331 330 330 330
310 312 320 323 325 328 334 334 328 329 328 332 331 333 336 338 340 341 337 335 333 333 329 329 329 329 326 327 327 323 315 314 317 319 321 323 325 324 325 327 329 330 330
305 309 315 321 325 328 337 337 334 335 333 327 329 335 332 333 336 339 339 336 336 335 332 330 331 332 329 325 326 329 327 324 318 315 317 319 322 323 324 324 326 328 329
304 305 309 320 323 326 331 338 337 335 330 323 321 325 327 330 336 340 340 338 337 335 334 332 331 331 330 328 327 326 326 324 321 315 313 313 318 321 322 323 323 324 326
307 305 306 315 322 325 328 334 334 333 324 321 322 323 324 330 334 339 339 338 338 336 334 333 332 331 331 330 328 328 326 323 319 314 311 311 312 315 318 320 320 321 323
Wind_Speed
8 12 18 17 17 18 19 20 21 21 21 21 19 18 17 17 17 17 17 16 14 14 13 12 10 9 8 7 7 6 5 5 5 5 6 6 6 5 6 8 6 6 10
17 17 21 19 18 18 20 20 20 20 19 20 19 19 17 17 17 16 16 15 14 14 13 11 10 9 7 6 5 5 5 5 4 4 4 4 4 4 2 4 7 6 8
17 17 19 20 19 19 20 21 20 20 20 20 19 19 18 17 17 16 15 14 14 13 12 11 10 9 8 7 6 4 4 4 3 3 2 1 2 0 1 2 7 8 8
20 17 19 23 21 20 20 21 20 20 19 19 19 19 18 17 16 16 15 15 14 13 12 11 10 9 8 7 5 4 3 3 2 2 1 1 3 4 2 4 7 7 7
18 15 20 25 22 21 21 21 21 21 19 19 19 18 18 17 16 15 14 13 14 13 12 11 10 9 8 7 5 3 2 1 1 3 2 3 4 5 6 6 7 8 7
16 14 21 25 22 22 22 21 21 20 19 18 18 17 17 17 15 14 13 13 13 13 13 12 10 9 8 6 5 3 3 2 2 2 3 5 3 8 8 8 8 8 8
17 13 16 23 23 21 22 22 21 21 20 19 18 17 17 16 15 15 14 13 12 12 12 12 10 9 8 7 5 4 5 4 2 2 3 5 2 7 9 8 7 7 8
21 18 16 20 20 19 20 21 21 21 20 19 18 17 17 16 16 15 14 14 13 12 11 11 11 9 7 6 5 6 5 5 3 4 5 4 4 7 10 9 8 8 8
13 14 13 14 16 18 17 19 21 21 21 20 19 18 17 16 16 16 15 14 13 12 12 11 11 11 9 8 7 7 7 6 3 2 4 4 8 10 12 10 9 9 9
5 9 11 10 10 9 10 17 18 20 21 21 20 19 18 17 16 16 14 14 14 13 12 11 11 11 10 9 8 8 9 8 2 2 3 4 10 12 13 11 10 9 9
4 6 7 9 6 6 4 9 14 18 18 19 17 18 14 8 9 11 12 14 14 13 12 12 11 11 11 11 10 11 10 2 2 3 2 9 9 12 13 11 9 8 9
12 9 10 11 9 7 7 5 5 7 7 8 9 10 8 7 6 7 10 14 13 13 13 12 12 12 11 4 4 10 2 4 3 4 3 10 10 13 14 11 10 10 10
5 7 9 10 9 10 8 5 3 3 4 4 7 7 6 5 5 4 3 4 4 10 4 7 6 5 5 4 4 4 4 4 3 3 5 10 11 14 16 13 13 12 12
7 7 8 9 9 10 5 6 7 7 5 5 7 7 6 4 5 5 4 5 5 4 5 5 3 5 5 6 6 5 5 4 3 3 6 12 10 14 17 15 15 15 13
10 10 10 11 11 10 7 5 4 4 5 6 5 6 6 6 6 5 4 4 5 4 4 5 5 5 5 6 6 6 6 6 6 3 3 13 13 17 18 18 16 15 14
14 15 12 12 11 8 9 7 7 6 6 4 4 6 8 6 5 6 5 6 5 6 5 5 6 5 5 5 6 8 7 6 6 5 4 5 13 16 17 15 13 14 15
9 13 18 20 17 16 17 13 9 10 7 6 7 6 9 8 6 7 6 6 7 6 6 4 5 4 4 4 7 6 5 7 6 5 5 4 4 11 14 13 10 15 16
5 9 12 13 15 16 14 13 10 10 12 11 9 7 11 11 9 8 7 7 6 5 6 6 4 4 5 5 5 6 5 5 6 7 5 5 6 3 5 12 28 17 16
12 9 9 12 15 17 15 10 10 10 8 7 7 8 11 12 12 10 8 6 6 5 6 6 3 5 4 4 6 4 5 4 5 3 6 6 5 5 4 15 23 18 12
12 11 10 8 8 12 8 5 4 4 4 5 7 8 12 9 10 10 7 6 7 6 5 5 6 6 4 6 5 5 4 4 3 5 5 3 5 5 5 6 5 6 13
7 8 10 10 11 5 3 4 4 4 5 5 8 12 9 8 11 10 6 7 8 9 10 8 5 6 4 4 3 2 3 4 4 4 3 4 6 6 5 5 4 3 4
10 11 12 14 17 11 10 8 4 5 8 9 7 6 8 10 10 9 10 9 10 6 6 9 8 4 3 5 3 1 1 2 2 3 4 4 6 3 4 5 5 6 5
7 8 10 14 16 15 16 3 3 3 2 3 3 4 8 9 9 10 10 8 9 8 8 9 9 9 5 4 5 4 2 4 1 1 0 3 4 3 3 4 5 5 5
12 8 10 14 14 14 16 10 10 13 11 5 4 5 5 7 8 8 9 10 9 8 7 8 7 6 5 5 1 2 1 4 4 1 2 1 2 4 4 3 4 5 5
13 11 9 10 13 15 13 15 14 14 8 3 2 5 4 4 6 7 9 10 10 8 7 8 7 7 4 4 3 3 0 2 3 3 3 3 2 3 3 3 4 3 4
10 11 9 9 12 13 13 16 17 18 11 5 4 5 5 3 4 7 9 10 9 8 8 6 7 7 7 4 3 3 4 4 3 3 2 3 2 3 2 2 3 3 3
Wind_Direction
210 168 170 165 157 147 138 133 130 130 130 130 130 127 126 126 130 134 138 139 136 135 134 135 133 128 123 118 114 107 91 77 69 65 58 58 70 82 124 138 121 122 126
148 164 166 166 159 153 145 140 135 134 134 134 136 134 138 138 139 141 140 141 140 143 144 144 141 137 130 124 116 113 108 101 78 59 56 41 52 61 84 155 152 141 140
150 162 162 162 162 159 153 145 143 143 143 143 142 141 143 143 144 143 145 146 147 150 150 150 147 145 144 142 135 123 114 101 80 69 34 59 320 117 74 110 157 150 153
152 169 158 161 164 163 160 150 149 150 150 149 147 147 148 149 150 150 155 154 155 156 156 158 155 158 155 156 143 150 134 105 105 73 32 314 267 231 174 150 142 159 160
153 176 158 160 165 168 164 157 155 156 156 154 151 154 155 156 156 158 164 161 164 164 164 167 167 169 170 166 161 173 190 148 86 40 352 307 255 251 201 179 170 169 168
151 174 164 158 167 172 166 161 160 159 159 158 157 159 162 163 163 164 171 170 174 172 173 175 177 180 181 177 183 208 255 282 44 30 326 301 237 217 209 200 186 175 175
158 171 165 160 167 177 168 165 166 164 164 161 165 165 167 168 172 174 178 180 184 181 180 182 183 187 186 183 199 228 261 288 1 347 312 327 279 207 206 207 184 181 180
163 159 162 164 169 179 173 170 169 169 166 165 169 172 175 177 181 182 184 187 187 189 189 188 186 194 193 192 207 238 260 292 355 349 318 309 288 215 216 215 195 190 190
158 149 156 161 175 180 179 178 174 170 169 170 175 177 181 185 188 189 188 192 193 193 193 196 191 193 198 200 211 233 255 285 309 305 309 310 304 220 218 218 210 209 209
134 148 153 156 170 173 183 189 181 173 175 175 179 180 184 188 195 195 190 197 199 197 199 201 200 198 203 205 212 228 241 255 288 287 281 284 292 220 216 218 218 216 220
135 163 149 154 158 149 171 197 186 181 181 181 183 185 183 187 198 200 195 204 205 202 203 207 205 206 206 214 214 235 244 232 243 249 246 269 271 227 223 223 227 226 232
183 195 172 164 169 148 181 197 195 183 188 187 189 189 187 178 179 187 199 211 214 211 208 210 210 213 214 204 220 240 217 224 225 240 243 260 256 239 228 222 231 232 234
306 183 180 176 169 172 189 170 175 199 189 186 183 179 189 165 180 188 175 200 200 219 206 208 208 205 199 187 216 221 229 236 224 233 250 259 251 241 226 226 225 231 231
169 240 181 183 177 184 185 188 194 195 196 194 201 181 174 173 181 187 183 187 188 202 193 188 195 190 192 197 213 216 230 224 224 229 249 260 251 235 225 221 219 229 230
173 187 207 182 184 186 178 180 181 223 209 206 195 187 182 185 192 185 184 183 206 189 189 191 198 196 195 205 212 214 227 232 232 223 229 263 252 231 219 222 214 221 221
179 182 176 199 187 175 195 192 181 189 204 209 225 194 192 196 185 193 177 201 209 201 194 192 198 197 207 204 213 221 227 230 236 226 227 256 265 224 226 232 219 224 221
210 199 183 191 184 196 193 210 194 210 194 181 217 203 187 190 194 189 192 193 211 205 183 180 196 167 190 212 222 219 220 228 235 227 222 225 252 248 219 231 274 232 226
215 195 194 192 191 200 205 209 209 206 186 186 195 191 197 184 192 184 201 207 193 182 183 189 177 176 201 198 227 224 220 221 226 226 219 233 241 211 186 172 233 235 226
211 201 199 208 196 200 205 204 206 199 202 179 197 181 201 189 189 191 200 203 183 178 186 189 176 189 183 205 227 229 220 224 222 218 224 224 227 220 194 218 228 228 228
220 210 205 199 214 201 205 199 209 214 196 181 203 201 199 191 190 196 198 181 182 183 187 181 181 196 165 206 225 236 231 232 222 215 218 192 226 243 230 222 239 230 225
242 261 226 206 231 202 160 177 211 214 205 213 214 208 186 177 190 192 196 183 186 193 199 185 180 177 199 163 96 298 271 238 234 225 191 201 228 236 225 222 219 227 238
242 223 232 227 228 215 226 224 218 212 222 219 201 181 181 190 189 187 189 191 190 193 174 180 185 150 180 170 170 123 283 337 278 219 200 225 235 225 224 222 219 220 217
279 250 239 233 229 215 212 148 98 84 139 155 187 182 201 201 193 192 190 184 188 190 189 188 186 183 168 184 194 160 118 217 178 317 359 235 230 229 242 226 230 229 220
296 249 231 236 232 225 202 192 201 214 213 212 196 215 197 189 203 186 190 190 188 191 180 186 182 201 135 162 192 240 287 149 169 305 341 263 215 225 237 251 247 248 224
303 296 268 237 226 230 201 217 206 213 213 151 139 175 199 200 201 193 197 195 187 187 176 166 162 182 168 148 163 153 190 63 65 121 249 303 309 246 243 228 239 250 223
296 295 278 255 242 230 220 207 210 213 197 152 157 191 203 195 198 196 194 191 183 179 164 173 176 174 175 163 152 169 159 167 179 146 177 231 225 292 329 291 245 237 232